Location: Boissi�res
(45.2500°N, 2.3667°E)
Time: 04:50:13
(UTC+00:00)

USA 307 - Pass Details

Date: 03 March 2021
Orbit: 567 x 577 km, 54.0° (Epoch: 13 April)

Event Time Altitude Azimuth Distance (km) Brightness Sun altitude
Rises 19:56:01 0° 298° (WNW) 2,785 7.7 -24.4°
Reaches altitude 10° 19:58:34 10° 310° (NW) 1,883 6.4 -24.8°
Enters shadow 20:02:01 27° 4° (N) 1,125 4.5 -25.4°
